Location: Unspecified
(0.0000°N, 0.0000°E)
Time: 18:54:47
(UTC+00:00)

S-56A Canister/Altair - Pass Details

Date: 27 November 2019
Orbit: 633 x 2499 km, 38.9° (Epoch: 06 December)

Event Time Altitude Azimuth Distance (km) Brightness Sun altitude
Rises 10:35:52 0° 228° (SW) 5,607 12.0 62.6°
Reaches altitude 10° 10:39:15 10° 227° (SW) 4,778 11.7 63.1°
Maximum altitude 10:53:37 89° 140° (SE) 2,496 11.6 65.1°
Drops below altitude 10° 11:08:24 10° 48° (NE) 4,901 11.7 66.8°
Sets 11:11:55 0° 48° (NE) 5,753 11.9 67.2°
